owner,sensor,date,latitude,longitude,vertical_datum,sea_water_temperature,qcFlag 
DISL,ioos:station:DISL:BSCA:1,2018-04-01T08:00:00Z,30.3288,-87.8293,0.0,20.35,2 
DISL,ioos:station:DISL:BSCA:1,2018-04-01T09:00:00Z,30.3288,-87.8293,0.0,20.16,2 
DISL,ioos:station:DISL:BSCA:1,2018-04-01T10:00:00Z,30.3288,-87.8293,0.0,20.13,2 
DISL,ioos:station:DISL:BSCA:1,2018-04-01T11:00:00Z,30.3288,-87.8293,0.0,20.22,2 
DISL,ioos:station:DISL:BSCA:1,2018-04-01T12:00:00Z,30.3288,-87.8293,0.0,20.4,2 
DISL,ioos:station:DISL:BSCA:1,2018-04-01T13:00:00Z,30.3288,-87.8293,0.0,20.31,2 
DISL,ioos:station:DISL:BSCA:1,2018-04-01T13:30:00Z,30.3288,-87.8293,0.0,20.44,2 
DISL,ioos:station:DISL:BSCA:1,2018-04-02T19:30:00Z,30.3288,-87.8293,0.0,21.51,2 
DISL,ioos:station:DISL:BSCA:1,2018-04-03T10:30:00Z,30.3288,-87.8293,0.0,22.77,2 
DISL,ioos:station:DISL:BSCA:1,2018-04-04T18:00:00Z,30.3288,-87.8293,0.0,22.83,2 
DISL,ioos:station:DISL:BSCA:1,2018-04-04T18:30:00Z,30.3288,-87.8293,0.0,22.81,2 
DISL,ioos:station:DISL:BSCA:1,2018-04-04T20:00:00Z,30.3288,-87.8293,0.0,23.02,2 
DISL,ioos:station:DISL:BSCA:1,2018-04-04T20:30:00Z,30.3288,-87.8293,0.0,23.06,2 
DISL,ioos:station:DISL:BSCA:1,2018-04-04T21:30:00Z,30.3288,-87.8293,0.0,23.03,2 
DISL,ioos:station:DISL:BSCA:1,2018-04-04T22:30:00Z,30.3288,-87.8293,0.0,22.95,2 
DISL,ioos:station:DISL:BSCA:1,2018-04-04T23:30:00Z,30.3288,-87.8293,0.0,22.83,2 
DISL,ioos:station:DISL:BSCA:1,2018-04-05T00:30:00Z,30.3288,-87.8293,0.0,22.69,2 
DISL,ioos:station:DISL:BSCA:1,2018-04-05T01:30:00Z,30.3288,-87.8293,0.0,22.59,2 
DISL,ioos:station:DISL:BSCA:1,2018-04-05T02:30:00Z,30.3288,-87.8293,0.0,22.5,2 
DISL,ioos:station:DISL:BSCA:1,2018-04-05T03:30:00Z,30.3288,-87.8293,0.0,22.39,2 
DISL,ioos:station:DISL:BSCA:1,2018-04-05T04:30:00Z,30.3288,-87.8293,0.0,22.36,2 
DISL,ioos:station:DISL:BSCA:1,2018-04-05T05:30:00Z,30.3288,-87.8293,0.0,22.27,2 
DISL,ioos:station:DISL:BSCA:1,2018-04-05T06:30:00Z,30.3288,-87.8293,0.0,21.92,2 
DISL,ioos:station:DISL:BSCA:1,2018-04-05T07:30:00Z,30.3288,-87.8293,0.0,21.7,2 
DISL,ioos:station:DISL:BSCA:1,2018-04-05T08:30:00Z,30.3288,-87.8293,0.0,21.5,2 
DISL,ioos:station:DISL:BSCA:1,2018-04-05T09:30:00Z,30.3288,-87.8293,0.0,21.34,2 
DISL,ioos:station:DISL:BSCA:1,2018-04-05T10:30:00Z,30.3288,-87.8293,0.0,21.14,2 
DISL,ioos:station:DISL:BSCA:1,2018-04-05T11:30:00Z,30.3288,-87.8293,0.0,20.9,2 
DISL,ioos:station:DISL:BSCA:1,2018-04-05T12:30:00Z,30.3288,-87.8293,0.0,20.7,2 
DISL,ioos:station:DISL:BSCA:1,2018-04-05T13:30:00Z,30.3288,-87.8293,0.0,20.54,2 
DISL,ioos:station:DISL:BSCA:1,2018-04-05T14:00:00Z,30.3288,-87.8293,0.0,20.49,2 
DISL,ioos:station:DISL:BSCA:1,2018-04-06T08:30:00Z,30.3288,-87.8293,0.0,20.69,2 
DISL,ioos:station:DISL:BSCA:1,2018-04-06T09:30:00Z,30.3288,-87.8293,0.0,20.66,2 
DISL,ioos:station:DISL:BSCA:1,2018-04-06T10:30:00Z,30.3288,-87.8293,0.0,20.7,2 
DISL,ioos:station:DISL:BSCA:1,2018-04-06T11:30:00Z,30.3288,-87.8293,0.0,20.7,2 
DISL,ioos:station:DISL:BSCA:1,2018-04-06T12:30:00Z,30.3288,-87.8293,0.0,20.65,2 
DISL,ioos:station:DISL:BSCA:1,2018-04-08T04:00:00Z,30.3288,-87.8293,0.0,20.75,2 
DISL,ioos:station:DISL:BSCA:1,2018-04-08T04:30:00Z,30.3288,-87.8293,0.0,20.68,2 
DISL,ioos:station:DISL:BSCA:1,2018-04-08T05:30:00Z,30.3288,-87.8293,0.0,20.63,2 
DISL,ioos:station:DISL:BSCA:1,2018-04-08T06:30:00Z,30.3288,-87.8293,0.0,20.51,2 
DISL,ioos:station:DISL:BSCA:1,2018-04-08T07:30:00Z,30.3288,-87.8293,0.0,20.3,2 
DISL,ioos:station:DISL:BSCA:1,2018-04-08T08:30:00Z,30.3288,-87.8293,0.0,20.11,2 
DISL,ioos:station:DISL:BSCA:1,2018-04-08T09:30:00Z,30.3288,-87.8293,0.0,20.01,2 
DISL,ioos:station:DISL:BSCA:1,2018-04-08T11:30:00Z,30.3288,-87.8293,0.0,19.57,2 
DISL,ioos:station:DISL:BSCA:1,2018-04-09T21:00:00Z,30.3288,-87.8293,0.0,19.24,2 
DISL,ioos:station:DISL:BSCA:1,2018-04-09T22:00:00Z,30.3288,-87.8293,0.0,19.21,2 
DISL,ioos:station:DISL:BSCA:1,2018-04-09T23:00:00Z,30.3288,-87.8293,0.0,19.5,2 
DISL,ioos:station:DISL:BSCA:1,2018-04-09T23:30:00Z,30.3288,-87.8293,0.0,19.54,2 
DISL,ioos:station:DISL:BSCA:1,2018-04-10T00:30:00Z,30.3288,-87.8293,0.0,19.79,2 
DISL,ioos:station:DISL:BSCA:1,2018-04-10T01:30:00Z,30.3288,-87.8293,0.0,19.71,2 
DISL,ioos:station:DISL:BSCA:1,2018-04-10T02:30:00Z,30.3288,-87.8293,0.0,19.71,2 
DISL,ioos:station:DISL:BSCA:1,2018-04-10T03:30:00Z,30.3288,-87.8293,0.0,19.46,2 
DISL,ioos:station:DISL:BSCA:1,2018-04-10T04:30:00Z,30.3288,-87.8293,0.0,19.39,2 
DISL,ioos:station:DISL:BSCA:1,2018-04-10T18:30:00Z,30.3288,-87.8293,0.0,19.66,2 
DISL,ioos:station:DISL:BSCA:1,2018-04-10T20:00:00Z,30.3288,-87.8293,0.0,19.79,2 
DISL,ioos:station:DISL:BSCA:1,2018-04-10T21:00:00Z,30.3288,-87.8293,0.0,19.58,2 
DISL,ioos:station:DISL:BSCA:1,2018-04-10T21:30:00Z,30.3288,-87.8293,0.0,19.64,2 
DISL,ioos:station:DISL:BSCA:1,2018-04-10T23:00:00Z,30.3288,-87.8293,0.0,19.99,2 
DISL,ioos:station:DISL:BSCA:1,2018-04-10T23:30:00Z,30.3288,-87.8293,0.0,19.99,2 
DISL,ioos:station:DISL:BSCA:1,2018-04-11T00:30:00Z,30.3288,-87.8293,0.0,20.12,2 
DISL,ioos:station:DISL:BSCA:1,2018-04-11T01:30:00Z,30.3288,-87.8293,0.0,20.19,2 
DISL,ioos:station:DISL:BSCA:1,2018-04-11T02:30:00Z,30.3288,-87.8293,0.0,20.16,2 
DISL,ioos:station:DISL:BSCA:1,2018-04-11T03:30:00Z,30.3288,-87.8293,0.0,20.13,2 
DISL,ioos:station:DISL:BSCA:1,2018-04-11T04:30:00Z,30.3288,-87.8293,0.0,20.02,2 
DISL,ioos:station:DISL:BSCA:1,2018-04-11T05:30:00Z,30.3288,-87.8293,0.0,20.2,2 
DISL,ioos:station:DISL:BSCA:1,2018-04-11T06:30:00Z,30.3288,-87.8293,0.0,20.26,2 
DISL,ioos:station:DISL:BSCA:1,2018-04-11T07:30:00Z,30.3288,-87.8293,0.0,20.04,2 
DISL,ioos:station:DISL:BSCA:1,2018-04-11T08:30:00Z,30.3288,-87.8293,0.0,19.55,2 
DISL,ioos:station:DISL:BSCA:1,2018-04-11T09:30:00Z,30.3288,-87.8293,0.0,19.42,2 
DISL,ioos:station:DISL:BSCA:1,2018-04-11T10:30:00Z,30.3288,-87.8293,0.0,19.28,2 
DISL,ioos:station:DISL:BSCA:1,2018-04-11T11:30:00Z,30.3288,-87.8293,0.0,19.15,2 
DISL,ioos:station:DISL:BSCA:1,2018-04-11T12:30:00Z,30.3288,-87.8293,0.0,19.05,2 
DISL,ioos:station:DISL:BSCA:1,2018-04-11T13:00:00Z,30.3288,-87.8293,0.0,18.99,2 
DISL,ioos:station:DISL:BSCA:1,2018-04-11T18:00:00Z,30.3288,-87.8293,0.0,19.32,2 
DISL,ioos:station:DISL:BSCA:1,2018-04-11T19:00:00Z,30.3288,-87.8293,0.0,19.72,2 
DISL,ioos:station:DISL:BSCA:1,2018-04-11T20:00:00Z,30.3288,-87.8293,0.0,19.9,2 
DISL,ioos:station:DISL:BSCA:1,2018-04-11T21:00:00Z,30.3288,-87.8293,0.0,20.01,2 
DISL,ioos:station:DISL:BSCA:1,2018-04-11T22:00:00Z,30.3288,-87.8293,0.0,20.09,2 
DISL,ioos:station:DISL:BSCA:1,2018-04-11T23:00:00Z,30.3288,-87.8293,0.0,20.14,2 
DISL,ioos:station:DISL:BSCA:1,2018-04-12T00:00:00Z,30.3288,-87.8293,0.0,20.09,2 
DISL,ioos:station:DISL:BSCA:1,2018-04-12T01:00:00Z,30.3288,-87.8293,0.0,20.0,2 
DISL,ioos:station:DISL:BSCA:1,2018-04-12T02:00:00Z,30.3288,-87.8293,0.0,19.95,2 
DISL,ioos:station:DISL:BSCA:1,2018-04-12T02:30:00Z,30.3288,-87.8293,0.0,19.92,2 
DISL,ioos:station:DISL:BSCA:1,2018-04-12T03:30:00Z,30.3288,-87.8293,0.0,19.9,2 
DISL,ioos:station:DISL:BSCA:1,2018-04-12T04:30:00Z,30.3288,-87.8293,0.0,19.84,2 
DISL,ioos:station:DISL:BSCA:1,2018-04-12T05:30:00Z,30.3288,-87.8293,0.0,19.8,2 
DISL,ioos:station:DISL:BSCA:1,2018-04-12T06:30:00Z,30.3288,-87.8293,0.0,19.74,2 
DISL,ioos:station:DISL:BSCA:1,2018-04-12T07:30:00Z,30.3288,-87.8293,0.0,19.69,2 
DISL,ioos:station:DISL:BSCA:1,2018-04-12T08:30:00Z,30.3288,-87.8293,0.0,19.62,2 
DISL,ioos:station:DISL:BSCA:1,2018-04-12T09:30:00Z,30.3288,-87.8293,0.0,19.57,2 
DISL,ioos:station:DISL:BSCA:1,2018-04-12T11:00:00Z,30.3288,-87.8293,0.0,19.51,2 
DISL,ioos:station:DISL:BSCA:1,2018-04-12T12:00:00Z,30.3288,-87.8293,0.0,19.41,2 
DISL,ioos:station:DISL:BSCA:1,2018-04-12T13:00:00Z,30.3288,-87.8293,0.0,19.32,2 
DISL,ioos:station:DISL:BSCA:1,2018-04-12T14:00:00Z,30.3288,-87.8293,0.0,19.4,2 
DISL,ioos:station:DISL:BSCA:1,2018-04-12T16:00:00Z,30.3288,-87.8293,0.0,19.7,2 
DISL,ioos:station:DISL:BSCA:1,2018-04-12T17:00:00Z,30.3288,-87.8293,0.0,20.15,2 
DISL,ioos:station:DISL:BSCA:1,2018-04-12T18:30:00Z,30.3288,-87.8293,0.0,20.48,2 
DISL,ioos:station:DISL:BSCA:1,2018-04-13T03:00:00Z,30.3288,-87.8293,0.0,20.9,2 
DISL,ioos:station:DISL:BSCA:1,2018-04-13T04:00:00Z,30.3288,-87.8293,0.0,20.84,2 
DISL,ioos:station:DISL:BSCA:1,2018-04-13T05:00:00Z,30.3288,-87.8293,0.0,20.76,2 
DISL,ioos:station:DISL:BSCA:1,2018-04-13T10:00:00Z,30.3288,-87.8293,0.0,20.47,2 
DISL,ioos:station:DISL:BSCA:1,2018-04-13T11:00:00Z,30.3288,-87.8293,0.0,20.42,2 
DISL,ioos:station:DISL:BSCA:1,2018-04-13T12:00:00Z,30.3288,-87.8293,0.0,20.39,2 
DISL,ioos:station:DISL:BSCA:1,2018-04-13T13:00:00Z,30.3288,-87.8293,0.0,20.38,2 
DISL,ioos:station:DISL:BSCA:1,2018-04-13T14:00:00Z,30.3288,-87.8293,0.0,20.47,2 
DISL,ioos:station:DISL:BSCA:1,2018-04-13T15:00:00Z,30.3288,-87.8293,0.0,20.61,2 
DISL,ioos:station:DISL:BSCA:1,2018-04-13T15:30:00Z,30.3288,-87.8293,0.0,20.69,2 
DISL,ioos:station:DISL:BSCA:1,2018-04-15T09:00:00Z,30.3288,-87.8293,0.0,22.02,2 
DISL,ioos:station:DISL:BSCA:1,2018-04-15T10:00:00Z,30.3288,-87.8293,0.0,21.81,2 
DISL,ioos:station:DISL:BSCA:1,2018-04-15T11:00:00Z,30.3288,-87.8293,0.0,21.74,2 
DISL,ioos:station:DISL:BSCA:1,2018-04-15T12:00:00Z,30.3288,-87.8293,0.0,21.78,2 
DISL,ioos:station:DISL:BSCA:1,2018-04-16T01:00:00Z,30.3288,-87.8293,0.0,20.84,2 
DISL,ioos:station:DISL:BSCA:1,2018-04-16T02:00:00Z,30.3288,-87.8293,0.0,20.72,2 
DISL,ioos:station:DISL:BSCA:1,2018-04-16T03:00:00Z,30.3288,-87.8293,0.0,20.6,2 
DISL,ioos:station:DISL:BSCA:1,2018-04-16T04:00:00Z,30.3288,-87.8293,0.0,20.46,2 
DISL,ioos:station:DISL:BSCA:1,2018-04-16T05:00:00Z,30.3288,-87.8293,0.0,20.34,2 
DISL,ioos:station:DISL:BSCA:1,2018-04-16T06:00:00Z,30.3288,-87.8293,0.0,20.24,2 
DISL,ioos:station:DISL:BSCA:1,2018-04-16T07:00:00Z,30.3288,-87.8293,0.0,20.44,2 
DISL,ioos:station:DISL:BSCA:1,2018-04-16T08:00:00Z,30.3288,-87.8293,0.0,20.19,2 
DISL,ioos:station:DISL:BSCA:1,2018-04-16T09:00:00Z,30.3288,-87.8293,0.0,20.02,2 
DISL,ioos:station:DISL:BSCA:1,2018-04-16T10:00:00Z,30.3288,-87.8293,0.0,19.69,2 
DISL,ioos:station:DISL:BSCA:1,2018-04-16T11:00:00Z,30.3288,-87.8293,0.0,19.44,2 
DISL,ioos:station:DISL:BSCA:1,2018-04-16T12:00:00Z,30.3288,-87.8293,0.0,19.85,2 
DISL,ioos:station:DISL:BSCA:1,2018-04-16T13:00:00Z,30.3288,-87.8293,0.0,19.83,2 
DISL,ioos:station:DISL:BSCA:1,2018-04-16T14:00:00Z,30.3288,-87.8293,0.0,19.24,2 
DISL,ioos:station:DISL:BSCA:1,2018-04-16T15:00:00Z,30.3288,-87.8293,0.0,19.17,2 
DISL,ioos:station:DISL:BSCA:1,2018-04-16T16:00:00Z,30.3288,-87.8293,0.0,19.18,2 
DISL,ioos:station:DISL:BSCA:1,2018-04-16T16:30:00Z,30.3288,-87.8293,0.0,19.24,2 
DISL,ioos:station:DISL:BSCA:1,2018-04-16T18:00:00Z,30.3288,-87.8293,0.0,19.54,2 
DISL,ioos:station:DISL:BSCA:1,2018-04-16T19:00:00Z,30.3288,-87.8293,0.0,19.73,2 
DISL,ioos:station:DISL:BSCA:1,2018-04-16T20:00:00Z,30.3288,-87.8293,0.0,19.91,2 
DISL,ioos:station:DISL:BSCA:1,2018-04-16T21:00:00Z,30.3288,-87.8293,0.0,19.82,2 
DISL,ioos:station:DISL:BSCA:1,2018-04-16T22:00:00Z,30.3288,-87.8293,0.0,19.64,2 
DISL,ioos:station:DISL:BSCA:1,2018-04-16T23:00:00Z,30.3288,-87.8293,0.0,20.0,2 
DISL,ioos:station:DISL:BSCA:1,2018-04-17T00:00:00Z,30.3288,-87.8293,0.0,19.97,2 
DISL,ioos:station:DISL:BSCA:1,2018-04-17T01:00:00Z,30.3288,-87.8293,0.0,19.76,2 
DISL,ioos:station:DISL:BSCA:1,2018-04-17T02:00:00Z,30.3288,-87.8293,0.0,19.81,2 
DISL,ioos:station:DISL:BSCA:1,2018-04-17T03:00:00Z,30.3288,-87.8293,0.0,19.85,2 
DISL,ioos:station:DISL:BSCA:1,2018-04-17T04:00:00Z,30.3288,-87.8293,0.0,19.75,2 
DISL,ioos:station:DISL:BSCA:1,2018-04-17T05:00:00Z,30.3288,-87.8293,0.0,19.66,2 
DISL,ioos:station:DISL:BSCA:1,2018-04-17T06:00:00Z,30.3288,-87.8293,0.0,19.67,2 
DISL,ioos:station:DISL:BSCA:1,2018-04-17T07:00:00Z,30.3288,-87.8293,0.0,19.52,2 
DISL,ioos:station:DISL:BSCA:1,2018-04-17T08:30:00Z,30.3288,-87.8293,0.0,19.42,2 
DISL,ioos:station:DISL:BSCA:1,2018-04-17T23:30:00Z,30.3288,-87.8293,0.0,20.86,2 
DISL,ioos:station:DISL:BSCA:1,2018-04-18T03:00:00Z,30.3288,-87.8293,0.0,20.67,2 
DISL,ioos:station:DISL:BSCA:1,2018-04-18T03:30:00Z,30.3288,-87.8293,0.0,20.64,2 
DISL,ioos:station:DISL:BSCA:1,2018-04-18T05:00:00Z,30.3288,-87.8293,0.0,20.54,2 
DISL,ioos:station:DISL:BSCA:1,2018-04-18T06:00:00Z,30.3288,-87.8293,0.0,20.44,2 
DISL,ioos:station:DISL:BSCA:1,2018-04-18T07:00:00Z,30.3288,-87.8293,0.0,20.32,2 
DISL,ioos:station:DISL:BSCA:1,2018-04-18T08:00:00Z,30.3288,-87.8293,0.0,20.22,2 
DISL,ioos:station:DISL:BSCA:1,2018-04-18T09:00:00Z,30.3288,-87.8293,0.0,20.17,2 
DISL,ioos:station:DISL:BSCA:1,2018-04-18T10:00:00Z,30.3288,-87.8293,0.0,20.13,2 
DISL,ioos:station:DISL:BSCA:1,2018-04-18T11:00:00Z,30.3288,-87.8293,0.0,20.11,2 
DISL,ioos:station:DISL:BSCA:1,2018-04-18T17:00:00Z,30.3288,-87.8293,0.0,20.51,2 
DISL,ioos:station:DISL:BSCA:1,2018-04-18T18:00:00Z,30.3288,-87.8293,0.0,20.54,2 
DISL,ioos:station:DISL:BSCA:1,2018-04-18T19:00:00Z,30.3288,-87.8293,0.0,20.59,2 
DISL,ioos:station:DISL:BSCA:1,2018-04-18T20:00:00Z,30.3288,-87.8293,0.0,20.68,2 
DISL,ioos:station:DISL:BSCA:1,2018-04-18T20:30:00Z,30.3288,-87.8293,0.0,20.76,2 
DISL,ioos:station:DISL:BSCA:1,2018-04-18T22:00:00Z,30.3288,-87.8293,0.0,21.31,2 
DISL,ioos:station:DISL:BSCA:1,2018-04-18T23:00:00Z,30.3288,-87.8293,0.0,21.75,2 
DISL,ioos:station:DISL:BSCA:1,2018-04-19T00:00:00Z,30.3288,-87.8293,0.0,22.23,2 
DISL,ioos:station:DISL:BSCA:1,2018-04-19T01:00:00Z,30.3288,-87.8293,0.0,22.42,2 
DISL,ioos:station:DISL:BSCA:1,2018-04-19T04:00:00Z,30.3288,-87.8293,0.0,22.19,2 
DISL,ioos:station:DISL:BSCA:1,2018-04-19T05:00:00Z,30.3288,-87.8293,0.0,22.1,2 
DISL,ioos:station:DISL:BSCA:1,2018-04-19T06:00:00Z,30.3288,-87.8293,0.0,22.03,2 
DISL,ioos:station:DISL:BSCA:1,2018-04-19T07:00:00Z,30.3288,-87.8293,0.0,21.96,2 
DISL,ioos:station:DISL:BSCA:1,2018-04-19T10:00:00Z,30.3288,-87.8293,0.0,21.76,2 
DISL,ioos:station:DISL:BSCA:1,2018-04-19T17:00:00Z,30.3288,-87.8293,0.0,21.58,2 
DISL,ioos:station:DISL:BSCA:1,2018-04-19T18:00:00Z,30.3288,-87.8293,0.0,21.36,2 
DISL,ioos:station:DISL:BSCA:1,2018-04-19T19:00:00Z,30.3288,-87.8293,0.0,21.27,2 
DISL,ioos:station:DISL:BSCA:1,2018-04-19T20:00:00Z,30.3288,-87.8293,0.0,21.32,2 
DISL,ioos:station:DISL:BSCA:1,2018-04-19T21:00:00Z,30.3288,-87.8293,0.0,21.45,2 
DISL,ioos:station:DISL:BSCA:1,2018-04-19T22:00:00Z,30.3288,-87.8293,0.0,21.47,2 
DISL,ioos:station:DISL:BSCA:1,2018-04-19T23:00:00Z,30.3288,-87.8293,0.0,21.51,2 
DISL,ioos:station:DISL:BSCA:1,2018-04-20T00:00:00Z,30.3288,-87.8293,0.0,21.5,2 
DISL,ioos:station:DISL:BSCA:1,2018-04-20T01:00:00Z,30.3288,-87.8293,0.0,21.42,2 
DISL,ioos:station:DISL:BSCA:1,2018-04-20T02:00:00Z,30.3288,-87.8293,0.0,21.58,2 
DISL,ioos:station:DISL:BSCA:1,2018-04-20T03:00:00Z,30.3288,-87.8293,0.0,21.79,2 
DISL,ioos:station:DISL:BSCA:1,2018-04-20T04:00:00Z,30.3288,-87.8293,0.0,21.98,2 
DISL,ioos:station:DISL:BSCA:1,2018-04-20T04:30:00Z,30.3288,-87.8293,0.0,22.07,2 
DISL,ioos:station:DISL:BSCA:1,2018-04-20T06:00:00Z,30.3288,-87.8293,0.0,21.71,2 
DISL,ioos:station:DISL:BSCA:1,2018-04-20T07:00:00Z,30.3288,-87.8293,0.0,21.51,2 
DISL,ioos:station:DISL:BSCA:1,2018-04-20T08:00:00Z,30.3288,-87.8293,0.0,21.28,2 
DISL,ioos:station:DISL:BSCA:1,2018-04-20T09:00:00Z,30.3288,-87.8293,0.0,21.0,2 
DISL,ioos:station:DISL:BSCA:1,2018-04-20T10:00:00Z,30.3288,-87.8293,0.0,20.88,2 
DISL,ioos:station:DISL:BSCA:1,2018-04-20T11:00:00Z,30.3288,-87.8293,0.0,20.65,2 
DISL,ioos:station:DISL:BSCA:1,2018-04-20T12:00:00Z,30.3288,-87.8293,0.0,20.57,2 
DISL,ioos:station:DISL:BSCA:1,2018-04-20T12:30:00Z,30.3288,-87.8293,0.0,20.41,2 
DISL,ioos:station:DISL:BSCA:1,2018-04-20T14:00:00Z,30.3288,-87.8293,0.0,20.27,2 
DISL,ioos:station:DISL:BSCA:1,2018-04-20T14:30:00Z,30.3288,-87.8293,0.0,20.36,2 
DISL,ioos:station:DISL:BSCA:1,2018-04-21T08:00:00Z,30.3288,-87.8293,0.0,20.5,2 
DISL,ioos:station:DISL:BSCA:1,2018-04-21T09:00:00Z,30.3288,-87.8293,0.0,20.26,2 
DISL,ioos:station:DISL:BSCA:1,2018-04-21T10:00:00Z,30.3288,-87.8293,0.0,20.23,2 
DISL,ioos:station:DISL:BSCA:1,2018-04-21T11:00:00Z,30.3288,-87.8293,0.0,20.1,2 
DISL,ioos:station:DISL:BSCA:1,2018-04-21T12:00:00Z,30.3288,-87.8293,0.0,20.0,2 
DISL,ioos:station:DISL:BSCA:1,2018-04-21T13:00:00Z,30.3288,-87.8293,0.0,19.92,2 
DISL,ioos:station:DISL:BSCA:1,2018-04-21T14:00:00Z,30.3288,-87.8293,0.0,19.84,2 
DISL,ioos:station:DISL:BSCA:1,2018-04-21T15:00:00Z,30.3288,-87.8293,0.0,19.85,2 
DISL,ioos:station:DISL:BSCA:1,2018-04-21T16:00:00Z,30.3288,-87.8293,0.0,20.14,2 
DISL,ioos:station:DISL:BSCA:1,2018-04-21T17:00:00Z,30.3288,-87.8293,0.0,20.52,2 
DISL,ioos:station:DISL:BSCA:1,2018-04-21T18:00:00Z,30.3288,-87.8293,0.0,20.18,2 
DISL,ioos:station:DISL:BSCA:1,2018-04-21T19:00:00Z,30.3288,-87.8293,0.0,20.46,2 
DISL,ioos:station:DISL:BSCA:1,2018-04-21T19:30:00Z,30.3288,-87.8293,0.0,20.34,2 
DISL,ioos:station:DISL:BSCA:1,2018-04-23T05:00:00Z,30.3288,-87.8293,0.0,21.73,2 
DISL,ioos:station:DISL:BSCA:1,2018-04-23T08:00:00Z,30.3288,-87.8293,0.0,21.68,2 
DISL,ioos:station:DISL:BSCA:1,2018-04-23T09:00:00Z,30.3288,-87.8293,0.0,21.53,2 
DISL,ioos:station:DISL:BSCA:1,2018-04-23T09:30:00Z,30.3288,-87.8293,0.0,21.49,2 
DISL,ioos:station:DISL:BSCA:1,2018-04-23T20:30:00Z,30.3288,-87.8293,0.0,21.8,2 
DISL,ioos:station:DISL:BSCA:1,2018-04-23T22:00:00Z,30.3288,-87.8293,0.0,21.85,2 
DISL,ioos:station:DISL:BSCA:1,2018-04-23T23:00:00Z,30.3288,-87.8293,0.0,21.9,2 
DISL,ioos:station:DISL:BSCA:1,2018-04-23T23:30:00Z,30.3288,-87.8293,0.0,21.93,2 
DISL,ioos:station:DISL:BSCA:1,2018-04-24T01:00:00Z,30.3288,-87.8293,0.0,21.81,2 
DISL,ioos:station:DISL:BSCA:1,2018-04-24T02:00:00Z,30.3288,-87.8293,0.0,21.72,2 
DISL,ioos:station:DISL:BSCA:1,2018-04-24T03:00:00Z,30.3288,-87.8293,0.0,21.64,2 
DISL,ioos:station:DISL:BSCA:1,2018-04-24T03:30:00Z,30.3288,-87.8293,0.0,21.59,2 
DISL,ioos:station:DISL:BSCA:1,2018-04-24T05:00:00Z,30.3288,-87.8293,0.0,21.43,2 
DISL,ioos:station:DISL:BSCA:1,2018-04-24T06:00:00Z,30.3288,-87.8293,0.0,21.26,2 
DISL,ioos:station:DISL:BSCA:1,2018-04-24T07:00:00Z,30.3288,-87.8293,0.0,21.22,2 
DISL,ioos:station:DISL:BSCA:1,2018-04-24T21:00:00Z,30.3288,-87.8293,0.0,21.91,2 
DISL,ioos:station:DISL:BSCA:1,2018-04-24T22:00:00Z,30.3288,-87.8293,0.0,21.77,2 
DISL,ioos:station:DISL:BSCA:1,2018-04-24T23:00:00Z,30.3288,-87.8293,0.0,21.87,2 
DISL,ioos:station:DISL:BSCA:1,2018-04-25T00:00:00Z,30.3288,-87.8293,0.0,21.76,2 
DISL,ioos:station:DISL:BSCA:1,2018-04-25T01:00:00Z,30.3288,-87.8293,0.0,21.84,2 
DISL,ioos:station:DISL:BSCA:1,2018-04-25T01:30:00Z,30.3288,-87.8293,0.0,21.86,2 
DISL,ioos:station:DISL:BSCA:1,2018-04-25T02:30:00Z,30.3288,-87.8293,0.0,21.84,2 
DISL,ioos:station:DISL:BSCA:1,2018-04-25T03:30:00Z,30.3288,-87.8293,0.0,21.8,2 
DISL,ioos:station:DISL:BSCA:1,2018-04-26T04:30:00Z,30.3288,-87.8293,0.0,22.52,2 
DISL,ioos:station:DISL:BSCA:1,2018-04-26T05:30:00Z,30.3288,-87.8293,0.0,22.51,2 
DISL,ioos:station:DISL:BSCA:1,2018-04-26T07:00:00Z,30.3288,-87.8293,0.0,22.53,2 
DISL,ioos:station:DISL:BSCA:1,2018-04-26T07:30:00Z,30.3288,-87.8293,0.0,22.54,2 
DISL,ioos:station:DISL:BSCA:1,2018-04-26T12:00:00Z,30.3288,-87.8293,0.0,22.11,2 
DISL,ioos:station:DISL:BSCA:1,2018-04-26T20:30:00Z,30.3288,-87.8293,0.0,22.81,2 
DISL,ioos:station:DISL:BSCA:1,2018-04-26T22:00:00Z,30.3288,-87.8293,0.0,22.92,2 
DISL,ioos:station:DISL:BSCA:1,2018-04-26T23:00:00Z,30.3288,-87.8293,0.0,22.91,2 
DISL,ioos:station:DISL:BSCA:1,2018-04-27T00:00:00Z,30.3288,-87.8293,0.0,22.83,2 
DISL,ioos:station:DISL:BSCA:1,2018-04-27T01:00:00Z,30.3288,-87.8293,0.0,22.72,2 
DISL,ioos:station:DISL:BSCA:1,2018-04-27T01:30:00Z,30.3288,-87.8293,0.0,22.67,2 
DISL,ioos:station:DISL:BSCA:1,2018-04-27T02:30:00Z,30.3288,-87.8293,0.0,22.54,2 
DISL,ioos:station:DISL:BSCA:1,2018-04-27T03:30:00Z,30.3288,-87.8293,0.0,22.42,2 
DISL,ioos:station:DISL:BSCA:1,2018-04-27T04:30:00Z,30.3288,-87.8293,0.0,22.26,2 
DISL,ioos:station:DISL:BSCA:1,2018-04-27T06:00:00Z,30.3288,-87.8293,0.0,22.15,2 
DISL,ioos:station:DISL:BSCA:1,2018-04-27T07:00:00Z,30.3288,-87.8293,0.0,22.15,2 
DISL,ioos:station:DISL:BSCA:1,2018-04-27T08:00:00Z,30.3288,-87.8293,0.0,22.09,2 
DISL,ioos:station:DISL:BSCA:1,2018-04-27T20:00:00Z,30.3288,-87.8293,0.0,21.81,2 
DISL,ioos:station:DISL:BSCA:1,2018-04-27T21:00:00Z,30.3288,-87.8293,0.0,21.98,2 
DISL,ioos:station:DISL:BSCA:1,2018-04-27T22:00:00Z,30.3288,-87.8293,0.0,22.35,2 
DISL,ioos:station:DISL:BSCA:1,2018-04-27T23:00:00Z,30.3288,-87.8293,0.0,22.38,2 
DISL,ioos:station:DISL:BSCA:1,2018-04-27T23:30:00Z,30.3288,-87.8293,0.0,22.33,2 
DISL,ioos:station:DISL:BSCA:1,2018-04-28T00:30:00Z,30.3288,-87.8293,0.0,22.31,2 
DISL,ioos:station:DISL:BSCA:1,2018-04-28T01:30:00Z,30.3288,-87.8293,0.0,22.21,2 
DISL,ioos:station:DISL:BSCA:1,2018-04-28T02:30:00Z,30.3288,-87.8293,0.0,22.12,2 
DISL,ioos:station:DISL:BSCA:1,2018-04-28T03:30:00Z,30.3288,-87.8293,0.0,22.04,2 
DISL,ioos:station:DISL:BSCA:1,2018-04-28T04:30:00Z,30.3288,-87.8293,0.0,22.01,2 
DISL,ioos:station:DISL:BSCA:1,2018-04-28T05:30:00Z,30.3288,-87.8293,0.0,21.98,2 
DISL,ioos:station:DISL:BSCA:1,2018-04-28T06:30:00Z,30.3288,-87.8293,0.0,21.96,2 
DISL,ioos:station:DISL:BSCA:1,2018-04-28T08:00:00Z,30.3288,-87.8293,0.0,22.03,2 
DISL,ioos:station:DISL:BSCA:1,2018-04-28T15:30:00Z,30.3288,-87.8293,0.0,21.99,2 
DISL,ioos:station:DISL:BSCA:1,2018-04-28T17:00:00Z,30.3288,-87.8293,0.0,21.93,2 
DISL,ioos:station:DISL:BSCA:1,2018-04-28T19:00:00Z,30.3288,-87.8293,0.0,21.96,2 
DISL,ioos:station:DISL:BSCA:1,2018-04-28T20:00:00Z,30.3288,-87.8293,0.0,22.0,2 
DISL,ioos:station:DISL:BSCA:1,2018-04-28T21:00:00Z,30.3288,-87.8293,0.0,22.25,2 
DISL,ioos:station:DISL:BSCA:1,2018-04-28T22:00:00Z,30.3288,-87.8293,0.0,22.82,2 
DISL,ioos:station:DISL:BSCA:1,2018-04-28T23:00:00Z,30.3288,-87.8293,0.0,23.18,2 
DISL,ioos:station:DISL:BSCA:1,2018-04-29T00:00:00Z,30.3288,-87.8293,0.0,23.07,2 
DISL,ioos:station:DISL:BSCA:1,2018-04-29T01:00:00Z,30.3288,-87.8293,0.0,22.91,2 
DISL,ioos:station:DISL:BSCA:1,2018-04-29T02:00:00Z,30.3288,-87.8293,0.0,22.8,2 
DISL,ioos:station:DISL:BSCA:1,2018-04-29T03:00:00Z,30.3288,-87.8293,0.0,22.69,2 
DISL,ioos:station:DISL:BSCA:1,2018-04-29T04:00:00Z,30.3288,-87.8293,0.0,22.61,2 
DISL,ioos:station:DISL:BSCA:1,2018-04-29T05:00:00Z,30.3288,-87.8293,0.0,22.52,2 
DISL,ioos:station:DISL:BSCA:1,2018-04-29T06:00:00Z,30.3288,-87.8293,0.0,22.45,2 
DISL,ioos:station:DISL:BSCA:1,2018-04-29T07:00:00Z,30.3288,-87.8293,0.0,22.43,2 
DISL,ioos:station:DISL:BSCA:1,2018-04-29T08:00:00Z,30.3288,-87.8293,0.0,22.35,2 
DISL,ioos:station:DISL:BSCA:1,2018-04-29T09:00:00Z,30.3288,-87.8293,0.0,22.38,2 
DISL,ioos:station:DISL:BSCA:1,2018-04-29T10:00:00Z,30.3288,-87.8293,0.0,22.44,2 
DISL,ioos:station:DISL:BSCA:1,2018-04-29T13:00:00Z,30.3288,-87.8293,0.0,22.54,2 
DISL,ioos:station:DISL:BSCA:1,2018-04-29T14:00:00Z,30.3288,-87.8293,0.0,22.41,2 
DISL,ioos:station:DISL:BSCA:1,2018-04-29T15:00:00Z,30.3288,-87.8293,0.0,22.24,2 
DISL,ioos:station:DISL:BSCA:1,2018-04-29T16:00:00Z,30.3288,-87.8293,0.0,22.26,2 
DISL,ioos:station:DISL:BSCA:1,2018-04-29T17:00:00Z,30.3288,-87.8293,0.0,22.36,2 
DISL,ioos:station:DISL:BSCA:1,2018-04-29T18:00:00Z,30.3288,-87.8293,0.0,22.44,2 
DISL,ioos:station:DISL:BSCA:1,2018-04-29T19:00:00Z,30.3288,-87.8293,0.0,22.46,2 
DISL,ioos:station:DISL:BSCA:1,2018-04-29T20:00:00Z,30.3288,-87.8293,0.0,22.49,2 
DISL,ioos:station:DISL:BSCA:1,2018-04-29T21:00:00Z,30.3288,-87.8293,0.0,22.56,2 
DISL,ioos:station:DISL:BSCA:1,2018-04-29T22:00:00Z,30.3288,-87.8293,0.0,22.72,2 
DISL,ioos:station:DISL:BSCA:1,2018-04-29T23:00:00Z,30.3288,-87.8293,0.0,22.68,2 
DISL,ioos:station:DISL:BSCA:1,2018-04-30T00:00:00Z,30.3288,-87.8293,0.0,22.96,2 
DISL,ioos:station:DISL:BSCA:1,2018-04-30T01:00:00Z,30.3288,-87.8293,0.0,23.07,2 
DISL,ioos:station:DISL:BSCA:1,2018-04-30T02:00:00Z,30.3288,-87.8293,0.0,22.99,2 
DISL,ioos:station:DISL:BSCA:1,2018-04-30T03:00:00Z,30.3288,-87.8293,0.0,22.86,2 
DISL,ioos:station:DISL:BSCA:1,2018-04-30T04:00:00Z,30.3288,-87.8293,0.0,22.76,2 
DISL,ioos:station:DISL:BSCA:1,2018-04-30T05:00:00Z,30.3288,-87.8293,0.0,22.62,2 
DISL,ioos:station:DISL:BSCA:1,2018-04-30T06:00:00Z,30.3288,-87.8293,0.0,22.4,2 
DISL,ioos:station:DISL:BSCA:1,2018-04-30T07:00:00Z,30.3288,-87.8293,0.0,22.26,2 
DISL,ioos:station:DISL:BSCA:1,2018-04-30T07:30:00Z,30.3288,-87.8293,0.0,22.18,2 
DISL,ioos:station:DISL:BSCA:1,2018-04-30T08:30:00Z,30.3288,-87.8293,0.0,22.04,2 